sat.trackr.live / text

‹ back to catalog

STARLINK-36592

NORAD 68007 · 2026-039X

PAYLOAD ACTIVE UNKNOWN

§ Identity

Operator
Country
US
Launch date
2026-02-27
Launch site
AFETR
Launch vehicle
Mass (kg)
RCS (m²)

Purposes: comms

External: N2YO · Heavens-Above · Gunter

§ Orbital elements

Epoch: 2026-09-19T16:44:14.375904Z

Period
94.27 min
Inclination
43.0037°
Eccentricity
0.0002342
Mean motion
15.27592641 rev/d
Perigee alt
481.4 km
Apogee alt
484.6 km
Semi-major
6,861.1 km
B*
3.6707e-4
RAAN
33.3332°
Arg perigee
275.4506°
Mean anomaly
84.6079°
Rev number
3,137

§ Raw data

STARLINK-365921 68007U 26039X   26262.69738861  .00009856  00000+0  36707-3 0  99902 68007  43.0037  33.3332 0002342 275.4506  84.6079 15.27592641 31377

JSON: /api/v1/satellites/68007 · /tle

For live sub-satellite position, see the globe view (requires WebGL).

§ Visibility from observer

Set your observer location to see the next 7 days of passes ≥ 10°. The values pass through the URL so the page stays shareable.

No JS? Fill the form by hand. The geolocation button needs JavaScript.